locationName,lineName,date,time,countIn,countOut
��Ƃ�̍L��,��������,2022/5/1,0:00,0,0
��Ƃ�̍L��,��������,2022/5/1,1:00,0,0
��Ƃ�̍L��,��������,2022/5/1,2:00,0,0
��Ƃ�̍L��,��������,2022/5/1,3:00,0,0
��Ƃ�̍L��,��������,2022/5/1,4:00,0,0
��Ƃ�̍L��,��������,2022/5/1,5:00,0,0
��Ƃ�̍L��,��������,2022/5/1,6:00,0,0
��Ƃ�̍L��,��������,2022/5/1,7:00,0,0
��Ƃ�̍L��,��������,2022/5/1,8:00,0,0
��Ƃ�̍L��,��������,2022/5/1,9:00,0,0
��Ƃ�̍L��,��������,2022/5/1,10:00,0,0
��Ƃ�̍L��,��������,2022/5/1,11:00,0,0
��Ƃ�̍L��,��������,2022/5/1,12:00,0,0
��Ƃ�̍L��,��������,2022/5/1,13:00,0,0
��Ƃ�̍L��,��������,2022/5/1,14:00,0,0
��Ƃ�̍L��,��������,2022/5/1,15:00,0,0
��Ƃ�̍L��,��������,2022/5/1,16:00,0,0
��Ƃ�̍L��,��������,2022/5/1,17:00,0,0
��Ƃ�̍L��,��������,2022/5/1,18:00,0,0
��Ƃ�̍L��,��������,2022/5/1,19:00,0,0
��Ƃ�̍L��,��������,2022/5/1,20:00,0,0
��Ƃ�̍L��,��������,2022/5/1,21:00,0,0
��Ƃ�̍L��,��������,2022/5/1,22:00,0,0
��Ƃ�̍L��,��������,2022/5/1,23:00,0,0
��Ƃ�̍L��,��������,2022/5/2,0:00,0,0
��Ƃ�̍L��,��������,2022/5/2,1:00,0,0
��Ƃ�̍L��,��������,2022/5/2,2:00,0,0
��Ƃ�̍L��,��������,2022/5/2,3:00,0,0
��Ƃ�̍L��,��������,2022/5/2,4:00,0,0
��Ƃ�̍L��,��������,2022/5/2,5:00,0,0
��Ƃ�̍L��,��������,2022/5/2,6:00,0,0
��Ƃ�̍L��,��������,2022/5/2,7:00,0,0
��Ƃ�̍L��,��������,2022/5/2,8:00,0,0
��Ƃ�̍L��,��������,2022/5/2,9:00,0,0
��Ƃ�̍L��,��������,2022/5/2,10:00,0,0
��Ƃ�̍L��,��������,2022/5/2,11:00,0,0
��Ƃ�̍L��,��������,2022/5/2,12:00,0,0
��Ƃ�̍L��,��������,2022/5/2,13:00,0,0
��Ƃ�̍L��,��������,2022/5/2,14:00,0,0
��Ƃ�̍L��,��������,2022/5/2,15:00,0,0
��Ƃ�̍L��,��������,2022/5/2,16:00,0,0
��Ƃ�̍L��,��������,2022/5/2,17:00,0,0
��Ƃ�̍L��,��������,2022/5/2,18:00,0,0
��Ƃ�̍L��,��������,2022/5/2,19:00,0,0
��Ƃ�̍L��,��������,2022/5/2,20:00,0,0
��Ƃ�̍L��,��������,2022/5/2,21:00,0,0
��Ƃ�̍L��,��������,2022/5/2,22:00,0,0
��Ƃ�̍L��,��������,2022/5/2,23:00,0,0
��Ƃ�̍L��,��������,2022/5/3,0:00,0,0
��Ƃ�̍L��,��������,2022/5/3,1:00,0,0
��Ƃ�̍L��,��������,2022/5/3,2:00,0,0
��Ƃ�̍L��,��������,2022/5/3,3:00,0,0
��Ƃ�̍L��,��������,2022/5/3,4:00,0,0
��Ƃ�̍L��,��������,2022/5/3,5:00,0,0
��Ƃ�̍L��,��������,2022/5/3,6:00,0,0
��Ƃ�̍L��,��������,2022/5/3,7:00,0,0
��Ƃ�̍L��,��������,2022/5/3,8:00,0,0
��Ƃ�̍L��,��������,2022/5/3,9:00,0,0
��Ƃ�̍L��,��������,2022/5/3,10:00,0,0
��Ƃ�̍L��,��������,2022/5/3,11:00,0,0
��Ƃ�̍L��,��������,2022/5/3,12:00,0,0
��Ƃ�̍L��,��������,2022/5/3,13:00,0,0
��Ƃ�̍L��,��������,2022/5/3,14:00,0,0
��Ƃ�̍L��,��������,2022/5/3,15:00,0,0
��Ƃ�̍L��,��������,2022/5/3,16:00,0,0
��Ƃ�̍L��,��������,2022/5/3,17:00,0,0
��Ƃ�̍L��,��������,2022/5/3,18:00,0,0
��Ƃ�̍L��,��������,2022/5/3,19:00,0,0
��Ƃ�̍L��,��������,2022/5/3,20:00,0,0
��Ƃ�̍L��,��������,2022/5/3,21:00,0,0
��Ƃ�̍L��,��������,2022/5/3,22:00,0,0
��Ƃ�̍L��,��������,2022/5/3,23:00,0,0
��Ƃ�̍L��,��������,2022/5/4,0:00,0,0
��Ƃ�̍L��,��������,2022/5/4,1:00,0,0
��Ƃ�̍L��,��������,2022/5/4,2:00,0,0
��Ƃ�̍L��,��������,2022/5/4,3:00,0,0
��Ƃ�̍L��,��������,2022/5/4,4:00,0,0
��Ƃ�̍L��,��������,2022/5/4,5:00,0,0
��Ƃ�̍L��,��������,2022/5/4,6:00,0,0
��Ƃ�̍L��,��������,2022/5/4,7:00,0,0
��Ƃ�̍L��,��������,2022/5/4,8:00,0,0
��Ƃ�̍L��,��������,2022/5/4,9:00,0,0
��Ƃ�̍L��,��������,2022/5/4,10:00,0,0
��Ƃ�̍L��,��������,2022/5/4,11:00,0,0
��Ƃ�̍L��,��������,2022/5/4,12:00,0,0
��Ƃ�̍L��,��������,2022/5/4,13:00,0,0
��Ƃ�̍L��,��������,2022/5/4,14:00,0,0
��Ƃ�̍L��,��������,2022/5/4,15:00,0,0
��Ƃ�̍L��,��������,2022/5/4,16:00,0,0
��Ƃ�̍L��,��������,2022/5/4,17:00,0,0
��Ƃ�̍L��,��������,2022/5/4,18:00,0,0
��Ƃ�̍L��,��������,2022/5/4,19:00,0,0
��Ƃ�̍L��,��������,2022/5/4,20:00,0,0
��Ƃ�̍L��,��������,2022/5/4,21:00,0,0
��Ƃ�̍L��,��������,2022/5/4,22:00,0,0
��Ƃ�̍L��,��������,2022/5/4,23:00,0,0
��Ƃ�̍L��,��������,2022/5/5,0:00,0,0
��Ƃ�̍L��,��������,2022/5/5,1:00,0,0
��Ƃ�̍L��,��������,2022/5/5,2:00,0,0
��Ƃ�̍L��,��������,2022/5/5,3:00,0,0
��Ƃ�̍L��,��������,2022/5/5,4:00,0,0
��Ƃ�̍L��,��������,2022/5/5,5:00,0,0
��Ƃ�̍L��,��������,2022/5/5,6:00,0,0
��Ƃ�̍L��,��������,2022/5/5,7:00,0,0
��Ƃ�̍L��,��������,2022/5/5,8:00,0,0
��Ƃ�̍L��,��������,2022/5/5,9:00,0,0
��Ƃ�̍L��,��������,2022/5/5,10:00,0,0
��Ƃ�̍L��,��������,2022/5/5,11:00,0,0
��Ƃ�̍L��,��������,2022/5/5,12:00,0,0
��Ƃ�̍L��,��������,2022/5/5,13:00,0,0
��Ƃ�̍L��,��������,2022/5/5,14:00,0,0
��Ƃ�̍L��,��������,2022/5/5,15:00,0,0
��Ƃ�̍L��,��������,2022/5/5,16:00,0,0
��Ƃ�̍L��,��������,2022/5/5,17:00,0,0
��Ƃ�̍L��,��������,2022/5/5,18:00,0,0
��Ƃ�̍L��,��������,2022/5/5,19:00,0,0
��Ƃ�̍L��,��������,2022/5/5,20:00,0,0
��Ƃ�̍L��,��������,2022/5/5,21:00,0,0
��Ƃ�̍L��,��������,2022/5/5,22:00,0,0
��Ƃ�̍L��,��������,2022/5/5,23:00,0,0
��Ƃ�̍L��,��������,2022/5/6,0:00,0,0
��Ƃ�̍L��,��������,2022/5/6,1:00,0,0
��Ƃ�̍L��,��������,2022/5/6,2:00,0,0
��Ƃ�̍L��,��������,2022/5/6,3:00,0,0
��Ƃ�̍L��,��������,2022/5/6,4:00,0,0
��Ƃ�̍L��,��������,2022/5/6,5:00,0,0
��Ƃ�̍L��,��������,2022/5/6,6:00,0,0
��Ƃ�̍L��,��������,2022/5/6,7:00,0,0
��Ƃ�̍L��,��������,2022/5/6,8:00,0,0
��Ƃ�̍L��,��������,2022/5/6,9:00,0,0
��Ƃ�̍L��,��������,2022/5/6,10:00,0,0
��Ƃ�̍L��,��������,2022/5/6,11:00,0,0
��Ƃ�̍L��,��������,2022/5/6,12:00,0,0
��Ƃ�̍L��,��������,2022/5/6,13:00,0,0
��Ƃ�̍L��,��������,2022/5/6,14:00,0,0
��Ƃ�̍L��,��������,2022/5/6,15:00,0,0
��Ƃ�̍L��,��������,2022/5/6,16:00,0,0
��Ƃ�̍L��,��������,2022/5/6,17:00,0,0
��Ƃ�̍L��,��������,2022/5/6,18:00,0,0
��Ƃ�̍L��,��������,2022/5/6,19:00,0,0
��Ƃ�̍L��,��������,2022/5/6,20:00,0,0
��Ƃ�̍L��,��������,2022/5/6,21:00,0,0
��Ƃ�̍L��,��������,2022/5/6,22:00,0,0
��Ƃ�̍L��,��������,2022/5/6,23:00,0,0
��Ƃ�̍L��,��������,2022/5/7,0:00,0,0
��Ƃ�̍L��,��������,2022/5/7,1:00,0,0
��Ƃ�̍L��,��������,2022/5/7,2:00,0,0
��Ƃ�̍L��,��������,2022/5/7,3:00,0,0
��Ƃ�̍L��,��������,2022/5/7,4:00,0,0
��Ƃ�̍L��,��������,2022/5/7,5:00,0,0
��Ƃ�̍L��,��������,2022/5/7,6:00,0,0
��Ƃ�̍L��,��������,2022/5/7,7:00,0,0
��Ƃ�̍L��,��������,2022/5/7,8:00,0,0
��Ƃ�̍L��,��������,2022/5/7,9:00,0,0
��Ƃ�̍L��,��������,2022/5/7,10:00,0,0
��Ƃ�̍L��,��������,2022/5/7,11:00,0,0
��Ƃ�̍L��,��������,2022/5/7,12:00,0,0
��Ƃ�̍L��,��������,2022/5/7,13:00,0,0
��Ƃ�̍L��,��������,2022/5/7,14:00,0,0
��Ƃ�̍L��,��������,2022/5/7,15:00,0,0
��Ƃ�̍L��,��������,2022/5/7,16:00,0,0
��Ƃ�̍L��,��������,2022/5/7,17:00,0,0
��Ƃ�̍L��,��������,2022/5/7,18:00,0,0
��Ƃ�̍L��,��������,2022/5/7,19:00,0,0
��Ƃ�̍L��,��������,2022/5/7,20:00,0,0
��Ƃ�̍L��,��������,2022/5/7,21:00,0,0
��Ƃ�̍L��,��������,2022/5/7,22:00,0,0
��Ƃ�̍L��,��������,2022/5/7,23:00,0,0
��Ƃ�̍L��,��������,2022/5/8,0:00,0,0
��Ƃ�̍L��,��������,2022/5/8,1:00,0,0
��Ƃ�̍L��,��������,2022/5/8,2:00,0,0
��Ƃ�̍L��,��������,2022/5/8,3:00,0,0
��Ƃ�̍L��,��������,2022/5/8,4:00,0,0
��Ƃ�̍L��,��������,2022/5/8,5:00,0,0
��Ƃ�̍L��,��������,2022/5/8,6:00,0,0
��Ƃ�̍L��,��������,2022/5/8,7:00,0,0
��Ƃ�̍L��,��������,2022/5/8,8:00,0,0
��Ƃ�̍L��,��������,2022/5/8,9:00,0,0
��Ƃ�̍L��,��������,2022/5/8,10:00,0,0
��Ƃ�̍L��,��������,2022/5/8,11:00,0,0
��Ƃ�̍L��,��������,2022/5/8,12:00,0,0
��Ƃ�̍L��,��������,2022/5/8,13:00,0,0
��Ƃ�̍L��,��������,2022/5/8,14:00,0,0
��Ƃ�̍L��,��������,2022/5/8,15:00,0,0
��Ƃ�̍L��,��������,2022/5/8,16:00,0,0
��Ƃ�̍L��,��������,2022/5/8,17:00,0,0
��Ƃ�̍L��,��������,2022/5/8,18:00,0,0
��Ƃ�̍L��,��������,2022/5/8,19:00,0,0
��Ƃ�̍L��,��������,2022/5/8,20:00,0,0
��Ƃ�̍L��,��������,2022/5/8,21:00,0,0
��Ƃ�̍L��,��������,2022/5/8,22:00,0,0
��Ƃ�̍L��,��������,2022/5/8,23:00,0,0
��Ƃ�̍L��,��������,2022/5/9,0:00,0,0
��Ƃ�̍L��,��������,2022/5/9,1:00,0,0
��Ƃ�̍L��,��������,2022/5/9,2:00,0,0
��Ƃ�̍L��,��������,2022/5/9,3:00,0,0
��Ƃ�̍L��,��������,2022/5/9,4:00,0,0
��Ƃ�̍L��,��������,2022/5/9,5:00,0,0
��Ƃ�̍L��,��������,2022/5/9,6:00,0,0
��Ƃ�̍L��,��������,2022/5/9,7:00,0,0
��Ƃ�̍L��,��������,2022/5/9,8:00,0,0
��Ƃ�̍L��,��������,2022/5/9,9:00,0,0
��Ƃ�̍L��,��������,2022/5/9,10:00,0,0
��Ƃ�̍L��,��������,2022/5/9,11:00,0,0
��Ƃ�̍L��,��������,2022/5/9,12:00,0,0
��Ƃ�̍L��,��������,2022/5/9,13:00,0,0
��Ƃ�̍L��,��������,2022/5/9,14:00,0,0
��Ƃ�̍L��,��������,2022/5/9,15:00,0,0
��Ƃ�̍L��,��������,2022/5/9,16:00,0,0
��Ƃ�̍L��,��������,2022/5/9,17:00,0,0
��Ƃ�̍L��,��������,2022/5/9,18:00,0,0
��Ƃ�̍L��,��������,2022/5/9,19:00,0,0
��Ƃ�̍L��,��������,2022/5/9,20:00,0,0
��Ƃ�̍L��,��������,2022/5/9,21:00,0,0
��Ƃ�̍L��,��������,2022/5/9,22:00,0,0
��Ƃ�̍L��,��������,2022/5/9,23:00,0,0
��Ƃ�̍L��,��������,2022/5/10,0:00,0,0
��Ƃ�̍L��,��������,2022/5/10,1:00,0,0
��Ƃ�̍L��,��������,2022/5/10,2:00,0,0
��Ƃ�̍L��,��������,2022/5/10,3:00,0,0
��Ƃ�̍L��,��������,2022/5/10,4:00,0,0
��Ƃ�̍L��,��������,2022/5/10,5:00,0,0
��Ƃ�̍L��,��������,2022/5/10,6:00,0,0
��Ƃ�̍L��,��������,2022/5/10,7:00,0,0
��Ƃ�̍L��,��������,2022/5/10,8:00,0,0
��Ƃ�̍L��,��������,2022/5/10,9:00,0,0
��Ƃ�̍L��,��������,2022/5/10,10:00,0,0
��Ƃ�̍L��,��������,2022/5/10,11:00,0,0
��Ƃ�̍L��,��������,2022/5/10,12:00,0,0
��Ƃ�̍L��,��������,2022/5/10,13:00,0,0
��Ƃ�̍L��,��������,2022/5/10,14:00,0,0
��Ƃ�̍L��,��������,2022/5/10,15:00,0,0
��Ƃ�̍L��,��������,2022/5/10,16:00,0,0
��Ƃ�̍L��,��������,2022/5/10,17:00,0,0
��Ƃ�̍L��,��������,2022/5/10,18:00,0,0
��Ƃ�̍L��,��������,2022/5/10,19:00,0,0
��Ƃ�̍L��,��������,2022/5/10,20:00,0,0
��Ƃ�̍L��,��������,2022/5/10,21:00,0,0
��Ƃ�̍L��,��������,2022/5/10,22:00,0,0
��Ƃ�̍L��,��������,2022/5/10,23:00,0,0
��Ƃ�̍L��,��������,2022/5/11,0:00,0,0
��Ƃ�̍L��,��������,2022/5/11,1:00,0,0
��Ƃ�̍L��,��������,2022/5/11,2:00,0,0
��Ƃ�̍L��,��������,2022/5/11,3:00,0,0
��Ƃ�̍L��,��������,2022/5/11,4:00,0,0
��Ƃ�̍L��,��������,2022/5/11,5:00,0,0
��Ƃ�̍L��,��������,2022/5/11,6:00,0,0
��Ƃ�̍L��,��������,2022/5/11,7:00,0,0
��Ƃ�̍L��,��������,2022/5/11,8:00,0,0
��Ƃ�̍L��,��������,2022/5/11,9:00,0,0
��Ƃ�̍L��,��������,2022/5/11,10:00,0,0
��Ƃ�̍L��,��������,2022/5/11,11:00,0,0
��Ƃ�̍L��,��������,2022/5/11,12:00,0,0
��Ƃ�̍L��,��������,2022/5/11,13:00,0,0
��Ƃ�̍L��,��������,2022/5/11,14:00,48,28
��Ƃ�̍L��,��������,2022/5/11,15:00,93,34
��Ƃ�̍L��,��������,2022/5/11,16:00,41,35
��Ƃ�̍L��,��������,2022/5/11,17:00,111,38
��Ƃ�̍L��,��������,2022/5/11,18:00,81,32
��Ƃ�̍L��,��������,2022/5/11,19:00,40,26
��Ƃ�̍L��,��������,2022/5/11,20:00,47,13
��Ƃ�̍L��,��������,2022/5/11,21:00,34,17
��Ƃ�̍L��,��������,2022/5/11,22:00,25,8
��Ƃ�̍L��,��������,2022/5/11,23:00,23,8
��Ƃ�̍L��,��������,2022/5/12,0:00,26,10
��Ƃ�̍L��,��������,2022/5/12,1:00,7,4
��Ƃ�̍L��,��������,2022/5/12,2:00,7,6
��Ƃ�̍L��,��������,2022/5/12,3:00,9,1
��Ƃ�̍L��,��������,2022/5/12,4:00,7,0
��Ƃ�̍L��,��������,2022/5/12,5:00,14,4
��Ƃ�̍L��,��������,2022/5/12,6:00,25,9
��Ƃ�̍L��,��������,2022/5/12,7:00,44,19
��Ƃ�̍L��,��������,2022/5/12,8:00,50,47
��Ƃ�̍L��,��������,2022/5/12,9:00,60,26
��Ƃ�̍L��,��������,2022/5/12,10:00,123,42
��Ƃ�̍L��,��������,2022/5/12,11:00,86,47
��Ƃ�̍L��,��������,2022/5/12,12:00,105,37
��Ƃ�̍L��,��������,2022/5/12,13:00,65,32
��Ƃ�̍L��,��������,2022/5/12,14:00,53,30
��Ƃ�̍L��,��������,2022/5/12,15:00,55,29
��Ƃ�̍L��,��������,2022/5/12,16:00,64,28
��Ƃ�̍L��,��������,2022/5/12,17:00,85,44
��Ƃ�̍L��,��������,2022/5/12,18:00,62,34
��Ƃ�̍L��,��������,2022/5/12,19:00,54,32
��Ƃ�̍L��,��������,2022/5/12,20:00,33,20
��Ƃ�̍L��,��������,2022/5/12,21:00,35,17
��Ƃ�̍L��,��������,2022/5/12,22:00,22,14
��Ƃ�̍L��,��������,2022/5/12,23:00,9,1
��Ƃ�̍L��,��������,2022/5/13,0:00,2,5
��Ƃ�̍L��,��������,2022/5/13,1:00,8,1
��Ƃ�̍L��,��������,2022/5/13,2:00,6,1
��Ƃ�̍L��,��������,2022/5/13,3:00,8,4
��Ƃ�̍L��,��������,2022/5/13,4:00,6,3
��Ƃ�̍L��,��������,2022/5/13,5:00,21,1
��Ƃ�̍L��,��������,2022/5/13,6:00,21,4
��Ƃ�̍L��,��������,2022/5/13,7:00,36,36
��Ƃ�̍L��,��������,2022/5/13,8:00,45,48
��Ƃ�̍L��,��������,2022/5/13,9:00,66,25
��Ƃ�̍L��,��������,2022/5/13,10:00,99,44
��Ƃ�̍L��,��������,2022/5/13,11:00,77,41
��Ƃ�̍L��,��������,2022/5/13,12:00,145,42
��Ƃ�̍L��,��������,2022/5/13,13:00,72,38
��Ƃ�̍L��,��������,2022/5/13,14:00,60,36
��Ƃ�̍L��,��������,2022/5/13,15:00,82,38
��Ƃ�̍L��,��������,2022/5/13,16:00,76,57
��Ƃ�̍L��,��������,2022/5/13,17:00,90,33
��Ƃ�̍L��,��������,2022/5/13,18:00,68,39
��Ƃ�̍L��,��������,2022/5/13,19:00,49,27
��Ƃ�̍L��,��������,2022/5/13,20:00,38,18
��Ƃ�̍L��,��������,2022/5/13,21:00,34,23
��Ƃ�̍L��,��������,2022/5/13,22:00,19,15
��Ƃ�̍L��,��������,2022/5/13,23:00,15,8
��Ƃ�̍L��,��������,2022/5/14,0:00,19,4
��Ƃ�̍L��,��������,2022/5/14,1:00,12,1
��Ƃ�̍L��,��������,2022/5/14,2:00,20,0
��Ƃ�̍L��,��������,2022/5/14,3:00,8,1
��Ƃ�̍L��,��������,2022/5/14,4:00,5,2
��Ƃ�̍L��,��������,2022/5/14,5:00,22,4
��Ƃ�̍L��,��������,2022/5/14,6:00,19,12
��Ƃ�̍L��,��������,2022/5/14,7:00,32,16
��Ƃ�̍L��,��������,2022/5/14,8:00,36,30
��Ƃ�̍L��,��������,2022/5/14,9:00,60,35
��Ƃ�̍L��,��������,2022/5/14,10:00,104,44
��Ƃ�̍L��,��������,2022/5/14,11:00,109,56
��Ƃ�̍L��,��������,2022/5/14,12:00,143,70
��Ƃ�̍L��,��������,2022/5/14,13:00,110,44
��Ƃ�̍L��,��������,2022/5/14,14:00,103,41
��Ƃ�̍L��,��������,2022/5/14,15:00,102,43
��Ƃ�̍L��,��������,2022/5/14,16:00,83,36
��Ƃ�̍L��,��������,2022/5/14,17:00,91,45
��Ƃ�̍L��,��������,2022/5/14,18:00,72,49
��Ƃ�̍L��,��������,2022/5/14,19:00,66,32
��Ƃ�̍L��,��������,2022/5/14,20:00,48,27
��Ƃ�̍L��,��������,2022/5/14,21:00,53,28
��Ƃ�̍L��,��������,2022/5/14,22:00,43,18
��Ƃ�̍L��,��������,2022/5/14,23:00,30,17
��Ƃ�̍L��,��������,2022/5/15,0:00,26,15
��Ƃ�̍L��,��������,2022/5/15,1:00,11,5
��Ƃ�̍L��,��������,2022/5/15,2:00,10,3
��Ƃ�̍L��,��������,2022/5/15,3:00,8,1
��Ƃ�̍L��,��������,2022/5/15,4:00,6,1
��Ƃ�̍L��,��������,2022/5/15,5:00,23,8
��Ƃ�̍L��,��������,2022/5/15,6:00,24,11
��Ƃ�̍L��,��������,2022/5/15,7:00,31,16
��Ƃ�̍L��,��������,2022/5/15,8:00,43,34
��Ƃ�̍L��,��������,2022/5/15,9:00,65,21
��Ƃ�̍L��,��������,2022/5/15,10:00,81,31
��Ƃ�̍L��,��������,2022/5/15,11:00,83,61
��Ƃ�̍L��,��������,2022/5/15,12:00,107,61
��Ƃ�̍L��,��������,2022/5/15,13:00,150,80
��Ƃ�̍L��,��������,2022/5/15,14:00,186,89
��Ƃ�̍L��,��������,2022/5/15,15:00,118,58
��Ƃ�̍L��,��������,2022/5/15,16:00,110,55
��Ƃ�̍L��,��������,2022/5/15,17:00,107,45
��Ƃ�̍L��,��������,2022/5/15,18:00,65,34
��Ƃ�̍L��,��������,2022/5/15,19:00,45,23
��Ƃ�̍L��,��������,2022/5/15,20:00,34,22
��Ƃ�̍L��,��������,2022/5/15,21:00,18,7
��Ƃ�̍L��,��������,2022/5/15,22:00,13,14
��Ƃ�̍L��,��������,2022/5/15,23:00,4,4
��Ƃ�̍L��,��������,2022/5/16,0:00,5,0
��Ƃ�̍L��,��������,2022/5/16,1:00,10,1
��Ƃ�̍L��,��������,2022/5/16,2:00,4,0
��Ƃ�̍L��,��������,2022/5/16,3:00,5,1
��Ƃ�̍L��,��������,2022/5/16,4:00,5,2
��Ƃ�̍L��,��������,2022/5/16,5:00,20,3
��Ƃ�̍L��,��������,2022/5/16,6:00,33,15
��Ƃ�̍L��,��������,2022/5/16,7:00,74,36
��Ƃ�̍L��,��������,2022/5/16,8:00,38,45
��Ƃ�̍L��,��������,2022/5/16,9:00,74,30
��Ƃ�̍L��,��������,2022/5/16,10:00,80,48
��Ƃ�̍L��,��������,2022/5/16,11:00,68,32
��Ƃ�̍L��,��������,2022/5/16,12:00,83,41
��Ƃ�̍L��,��������,2022/5/16,13:00,77,29
��Ƃ�̍L��,��������,2022/5/16,14:00,60,31
��Ƃ�̍L��,��������,2022/5/16,15:00,67,33
��Ƃ�̍L��,��������,2022/5/16,16:00,80,41
��Ƃ�̍L��,��������,2022/5/16,17:00,108,53
��Ƃ�̍L��,��������,2022/5/16,18:00,131,37
��Ƃ�̍L��,��������,2022/5/16,19:00,48,23
��Ƃ�̍L��,��������,2022/5/16,20:00,46,23
��Ƃ�̍L��,��������,2022/5/16,21:00,33,16
��Ƃ�̍L��,��������,2022/5/16,22:00,24,18
��Ƃ�̍L��,��������,2022/5/16,23:00,12,9
��Ƃ�̍L��,��������,2022/5/17,0:00,16,2
��Ƃ�̍L��,��������,2022/5/17,1:00,6,1
��Ƃ�̍L��,��������,2022/5/17,2:00,2,2
��Ƃ�̍L��,��������,2022/5/17,3:00,7,0
��Ƃ�̍L��,��������,2022/5/17,4:00,7,4
��Ƃ�̍L��,��������,2022/5/17,5:00,20,4
��Ƃ�̍L��,��������,2022/5/17,6:00,35,12
��Ƃ�̍L��,��������,2022/5/17,7:00,74,28
��Ƃ�̍L��,��������,2022/5/17,8:00,71,47
��Ƃ�̍L��,��������,2022/5/17,9:00,66,27
��Ƃ�̍L��,��������,2022/5/17,10:00,63,30
��Ƃ�̍L��,��������,2022/5/17,11:00,73,39
��Ƃ�̍L��,��������,2022/5/17,12:00,82,44
��Ƃ�̍L��,��������,2022/5/17,13:00,51,43
��Ƃ�̍L��,��������,2022/5/17,14:00,64,25
��Ƃ�̍L��,��������,2022/5/17,15:00,65,29
��Ƃ�̍L��,��������,2022/5/17,16:00,70,26
��Ƃ�̍L��,��������,2022/5/17,17:00,93,26
��Ƃ�̍L��,��������,2022/5/17,18:00,120,37
��Ƃ�̍L��,��������,2022/5/17,19:00,44,31
��Ƃ�̍L��,��������,2022/5/17,20:00,42,23
��Ƃ�̍L��,��������,2022/5/17,21:00,27,15
��Ƃ�̍L��,��������,2022/5/17,22:00,14,16
��Ƃ�̍L��,��������,2022/5/17,23:00,18,9
��Ƃ�̍L��,��������,2022/5/18,0:00,15,5
��Ƃ�̍L��,��������,2022/5/18,1:00,11,2
��Ƃ�̍L��,��������,2022/5/18,2:00,4,2
��Ƃ�̍L��,��������,2022/5/18,3:00,5,0
��Ƃ�̍L��,��������,2022/5/18,4:00,3,1
��Ƃ�̍L��,��������,2022/5/18,5:00,25,4
��Ƃ�̍L��,��������,2022/5/18,6:00,29,14
��Ƃ�̍L��,��������,2022/5/18,7:00,68,19
��Ƃ�̍L��,��������,2022/5/18,8:00,38,39
��Ƃ�̍L��,��������,2022/5/18,9:00,56,28
��Ƃ�̍L��,��������,2022/5/18,10:00,51,12
��Ƃ�̍L��,��������,2022/5/18,11:00,60,25
��Ƃ�̍L��,��������,2022/5/18,12:00,74,30
��Ƃ�̍L��,��������,2022/5/18,13:00,57,26
��Ƃ�̍L��,��������,2022/5/18,14:00,51,24
��Ƃ�̍L��,��������,2022/5/18,15:00,87,30
��Ƃ�̍L��,��������,2022/5/18,16:00,92,30
��Ƃ�̍L��,��������,2022/5/18,17:00,91,28
��Ƃ�̍L��,��������,2022/5/18,18:00,57,28
��Ƃ�̍L��,��������,2022/5/18,19:00,44,16
��Ƃ�̍L��,��������,2022/5/18,20:00,56,22
��Ƃ�̍L��,��������,2022/5/18,21:00,28,14
��Ƃ�̍L��,��������,2022/5/18,22:00,25,16
��Ƃ�̍L��,��������,2022/5/18,23:00,17,14
��Ƃ�̍L��,��������,2022/5/19,0:00,8,6
��Ƃ�̍L��,��������,2022/5/19,1:00,10,4
��Ƃ�̍L��,��������,2022/5/19,2:00,6,4
��Ƃ�̍L��,��������,2022/5/19,3:00,9,2
��Ƃ�̍L��,��������,2022/5/19,4:00,7,4
��Ƃ�̍L��,��������,2022/5/19,5:00,17,5
��Ƃ�̍L��,��������,2022/5/19,6:00,31,8
��Ƃ�̍L��,��������,2022/5/19,7:00,51,31
��Ƃ�̍L��,��������,2022/5/19,8:00,37,28
��Ƃ�̍L��,��������,2022/5/19,9:00,58,27
��Ƃ�̍L��,��������,2022/5/19,10:00,56,25
��Ƃ�̍L��,��������,2022/5/19,11:00,48,35
��Ƃ�̍L��,��������,2022/5/19,12:00,53,31
��Ƃ�̍L��,��������,2022/5/19,13:00,49,23
��Ƃ�̍L��,��������,2022/5/19,14:00,63,17
��Ƃ�̍L��,��������,2022/5/19,15:00,75,35
��Ƃ�̍L��,��������,2022/5/19,16:00,71,46
��Ƃ�̍L��,��������,2022/5/19,17:00,78,27
��Ƃ�̍L��,��������,2022/5/19,18:00,78,36
��Ƃ�̍L��,��������,2022/5/19,19:00,44,30
��Ƃ�̍L��,��������,2022/5/19,20:00,42,18
��Ƃ�̍L��,��������,2022/5/19,21:00,45,20
��Ƃ�̍L��,��������,2022/5/19,22:00,28,13
��Ƃ�̍L��,��������,2022/5/19,23:00,12,6
��Ƃ�̍L��,��������,2022/5/20,0:00,24,6
��Ƃ�̍L��,��������,2022/5/20,1:00,13,2
��Ƃ�̍L��,��������,2022/5/20,2:00,10,1
��Ƃ�̍L��,��������,2022/5/20,3:00,3,1
��Ƃ�̍L��,��������,2022/5/20,4:00,5,1
��Ƃ�̍L��,��������,2022/5/20,5:00,17,1
��Ƃ�̍L��,��������,2022/5/20,6:00,29,8
��Ƃ�̍L��,��������,2022/5/20,7:00,64,26
��Ƃ�̍L��,��������,2022/5/20,8:00,53,50
��Ƃ�̍L��,��������,2022/5/20,9:00,63,37
��Ƃ�̍L��,��������,2022/5/20,10:00,89,36
��Ƃ�̍L��,��������,2022/5/20,11:00,79,46
��Ƃ�̍L��,��������,2022/5/20,12:00,86,32
��Ƃ�̍L��,��������,2022/5/20,13:00,79,47
��Ƃ�̍L��,��������,2022/5/20,14:00,61,26
��Ƃ�̍L��,��������,2022/5/20,15:00,95,36
��Ƃ�̍L��,��������,2022/5/20,16:00,94,52
��Ƃ�̍L��,��������,2022/5/20,17:00,95,48
��Ƃ�̍L��,��������,2022/5/20,18:00,121,41
��Ƃ�̍L��,��������,2022/5/20,19:00,47,44
��Ƃ�̍L��,��������,2022/5/20,20:00,54,25
��Ƃ�̍L��,��������,2022/5/20,21:00,68,34
��Ƃ�̍L��,��������,2022/5/20,22:00,12,16
��Ƃ�̍L��,��������,2022/5/20,23:00,23,13
��Ƃ�̍L��,��������,2022/5/21,0:00,18,13
��Ƃ�̍L��,��������,2022/5/21,1:00,8,2
��Ƃ�̍L��,��������,2022/5/21,2:00,19,1
��Ƃ�̍L��,��������,2022/5/21,3:00,5,2
��Ƃ�̍L��,��������,2022/5/21,4:00,7,1
��Ƃ�̍L��,��������,2022/5/21,5:00,19,7
��Ƃ�̍L��,��������,2022/5/21,6:00,16,13
��Ƃ�̍L��,��������,2022/5/21,7:00,59,21
��Ƃ�̍L��,��������,2022/5/21,8:00,57,29
��Ƃ�̍L��,��������,2022/5/21,9:00,98,40
��Ƃ�̍L��,��������,2022/5/21,10:00,95,34
��Ƃ�̍L��,��������,2022/5/21,11:00,94,53
��Ƃ�̍L��,��������,2022/5/21,12:00,138,73
��Ƃ�̍L��,��������,2022/5/21,13:00,127,46
��Ƃ�̍L��,��������,2022/5/21,14:00,109,67
��Ƃ�̍L��,��������,2022/5/21,15:00,84,29
��Ƃ�̍L��,��������,2022/5/21,16:00,80,37
��Ƃ�̍L��,��������,2022/5/21,17:00,70,34
��Ƃ�̍L��,��������,2022/5/21,18:00,63,49
��Ƃ�̍L��,��������,2022/5/21,19:00,54,24
��Ƃ�̍L��,��������,2022/5/21,20:00,66,33
��Ƃ�̍L��,��������,2022/5/21,21:00,40,23
��Ƃ�̍L��,��������,2022/5/21,22:00,47,23
��Ƃ�̍L��,��������,2022/5/21,23:00,32,14
��Ƃ�̍L��,��������,2022/5/22,0:00,11,16
��Ƃ�̍L��,��������,2022/5/22,1:00,31,6
��Ƃ�̍L��,��������,2022/5/22,2:00,11,2
��Ƃ�̍L��,��������,2022/5/22,3:00,7,2
��Ƃ�̍L��,��������,2022/5/22,4:00,5,0
��Ƃ�̍L��,��������,2022/5/22,5:00,12,7
��Ƃ�̍L��,��������,2022/5/22,6:00,23,12
��Ƃ�̍L��,��������,2022/5/22,7:00,42,16
��Ƃ�̍L��,��������,2022/5/22,8:00,45,6
��Ƃ�̍L��,��������,2022/5/22,9:00,54,25
��Ƃ�̍L��,��������,2022/5/22,10:00,89,37
��Ƃ�̍L��,��������,2022/5/22,11:00,121,54
��Ƃ�̍L��,��������,2022/5/22,12:00,145,67
��Ƃ�̍L��,��������,2022/5/22,13:00,151,49
��Ƃ�̍L��,��������,2022/5/22,14:00,138,65
��Ƃ�̍L��,��������,2022/5/22,15:00,103,39
��Ƃ�̍L��,��������,2022/5/22,16:00,74,33
��Ƃ�̍L��,��������,2022/5/22,17:00,50,22
��Ƃ�̍L��,��������,2022/5/22,18:00,29,19
��Ƃ�̍L��,��������,2022/5/22,19:00,26,20
��Ƃ�̍L��,��������,2022/5/22,20:00,21,19
��Ƃ�̍L��,��������,2022/5/22,21:00,26,17
��Ƃ�̍L��,��������,2022/5/22,22:00,18,4
��Ƃ�̍L��,��������,2022/5/22,23:00,18,7
��Ƃ�̍L��,��������,2022/5/23,0:00,5,4
��Ƃ�̍L��,��������,2022/5/23,1:00,4,1
��Ƃ�̍L��,��������,2022/5/23,2:00,2,2
��Ƃ�̍L��,��������,2022/5/23,3:00,3,0
��Ƃ�̍L��,��������,2022/5/23,4:00,8,0
��Ƃ�̍L��,��������,2022/5/23,5:00,20,3
��Ƃ�̍L��,��������,2022/5/23,6:00,26,8
��Ƃ�̍L��,��������,2022/5/23,7:00,49,21
��Ƃ�̍L��,��������,2022/5/23,8:00,43,48
��Ƃ�̍L��,��������,2022/5/23,9:00,52,25
��Ƃ�̍L��,��������,2022/5/23,10:00,68,29
��Ƃ�̍L��,��������,2022/5/23,11:00,53,35
��Ƃ�̍L��,��������,2022/5/23,12:00,80,38
��Ƃ�̍L��,��������,2022/5/23,13:00,75,21
��Ƃ�̍L��,��������,2022/5/23,14:00,59,34
��Ƃ�̍L��,��������,2022/5/23,15:00,67,26
��Ƃ�̍L��,��������,2022/5/23,16:00,79,35
��Ƃ�̍L��,��������,2022/5/23,17:00,83,25
��Ƃ�̍L��,��������,2022/5/23,18:00,81,31
��Ƃ�̍L��,��������,2022/5/23,19:00,49,23
��Ƃ�̍L��,��������,2022/5/23,20:00,24,12
��Ƃ�̍L��,��������,2022/5/23,21:00,34,18
��Ƃ�̍L��,��������,2022/5/23,22:00,15,6
��Ƃ�̍L��,��������,2022/5/23,23:00,11,6
��Ƃ�̍L��,��������,2022/5/24,0:00,14,4
��Ƃ�̍L��,��������,2022/5/24,1:00,5,0
��Ƃ�̍L��,��������,2022/5/24,2:00,6,2
��Ƃ�̍L��,��������,2022/5/24,3:00,2,0
��Ƃ�̍L��,��������,2022/5/24,4:00,6,2
��Ƃ�̍L��,��������,2022/5/24,5:00,21,7
��Ƃ�̍L��,��������,2022/5/24,6:00,29,7
��Ƃ�̍L��,��������,2022/5/24,7:00,58,23
��Ƃ�̍L��,��������,2022/5/24,8:00,49,36
��Ƃ�̍L��,��������,2022/5/24,9:00,43,18
��Ƃ�̍L��,��������,2022/5/24,10:00,57,21
��Ƃ�̍L��,��������,2022/5/24,11:00,65,30
��Ƃ�̍L��,��������,2022/5/24,12:00,75,38
��Ƃ�̍L��,��������,2022/5/24,13:00,58,22
��Ƃ�̍L��,��������,2022/5/24,14:00,39,24
��Ƃ�̍L��,��������,2022/5/24,15:00,55,21
��Ƃ�̍L��,��������,2022/5/24,16:00,67,22
��Ƃ�̍L��,��������,2022/5/24,17:00,63,24
��Ƃ�̍L��,��������,2022/5/24,18:00,91,30
��Ƃ�̍L��,��������,2022/5/24,19:00,28,27
��Ƃ�̍L��,��������,2022/5/24,20:00,37,16
��Ƃ�̍L��,��������,2022/5/24,21:00,38,22
��Ƃ�̍L��,��������,2022/5/24,22:00,20,12
��Ƃ�̍L��,��������,2022/5/24,23:00,18,6
��Ƃ�̍L��,��������,2022/5/25,0:00,11,5
��Ƃ�̍L��,��������,2022/5/25,1:00,16,4
��Ƃ�̍L��,��������,2022/5/25,2:00,6,1
��Ƃ�̍L��,��������,2022/5/25,3:00,6,1
��Ƃ�̍L��,��������,2022/5/25,4:00,5,1
��Ƃ�̍L��,��������,2022/5/25,5:00,14,3
��Ƃ�̍L��,��������,2022/5/25,6:00,24,7
��Ƃ�̍L��,��������,2022/5/25,7:00,68,22
��Ƃ�̍L��,��������,2022/5/25,8:00,44,28
��Ƃ�̍L��,��������,2022/5/25,9:00,45,21
��Ƃ�̍L��,��������,2022/5/25,10:00,82,29
��Ƃ�̍L��,��������,2022/5/25,11:00,51,22
��Ƃ�̍L��,��������,2022/5/25,12:00,78,29
��Ƃ�̍L��,��������,2022/5/25,13:00,58,31
��Ƃ�̍L��,��������,2022/5/25,14:00,54,34
��Ƃ�̍L��,��������,2022/5/25,15:00,65,25
��Ƃ�̍L��,��������,2022/5/25,16:00,92,28
��Ƃ�̍L��,��������,2022/5/25,17:00,73,26
��Ƃ�̍L��,��������,2022/5/25,18:00,67,25
��Ƃ�̍L��,��������,2022/5/25,19:00,30,20
��Ƃ�̍L��,��������,2022/5/25,20:00,31,13
��Ƃ�̍L��,��������,2022/5/25,21:00,17,13
��Ƃ�̍L��,��������,2022/5/25,22:00,20,19
��Ƃ�̍L��,��������,2022/5/25,23:00,17,14
��Ƃ�̍L��,��������,2022/5/26,0:00,2,2
��Ƃ�̍L��,��������,2022/5/26,1:00,19,3
��Ƃ�̍L��,��������,2022/5/26,2:00,5,2
��Ƃ�̍L��,��������,2022/5/26,3:00,5,3
��Ƃ�̍L��,��������,2022/5/26,4:00,4,1
��Ƃ�̍L��,��������,2022/5/26,5:00,20,5
��Ƃ�̍L��,��������,2022/5/26,6:00,17,4
��Ƃ�̍L��,��������,2022/5/26,7:00,42,22
��Ƃ�̍L��,��������,2022/5/26,8:00,53,45
��Ƃ�̍L��,��������,2022/5/26,9:00,32,31
��Ƃ�̍L��,��������,2022/5/26,10:00,55,53